Regional Weather Roundup
Issued by NWS

Home | Current Version | Previous Version | Text Only | Print | Product List | Glossary Off
Versions: 1 2 3 4 5 6 7 8 9 10 11 12 13 14 15 16 17 18 19 20 21 22 23 24 25 26 27 28 29 30 31 32 33 34 35 36 37 38 39 40 41 42 43 44 45 46 47 48 49 50

000
ASUS43 KMKX 160411
RWRWI

WISCONSIN REGIONAL WEATHER ROUNDUP
NATIONAL WEATHER SERVICE MILWAUKEE/SULLIVAN WI
1100 PM CDT MON SEP 15 2014

NOTE: "FAIR" INDICATES FEW OR NO CLOUDS BELOW 12,000 FEET WITH NO
SIGNIFICANT WEATHER AND/OR OBSTRUCTIONS TO VISIBILITY.

WIZ001-002-006>008-014>016-023>028-160500-
NORTHWEST WISCONSIN

CITY           SKY/WX    TMP DP  RH WIND       PRES   REMARKS
SUPERIOR ARPT  CLEAR     42  38  87 SW7       30.16S
ASHLAND        CLEAR     43  37  79 SW8       30.17R
HAYWARD        CLEAR     38  36  92 CALM      30.19S
SIREN          CLEAR     39  37  95 CALM      30.20S
RICE LAKE      CLEAR     41  40  95 CALM      30.22R
LADYSMITH      CLEAR     39  37  94 CALM      30.21R
EAU CLAIRE     CLEAR     42  38  85 CALM      30.21R
MENOMONIE      CLEAR     45  42  87 W3        30.22R
NEW RICHMOND   CLEAR     41  41  99 CALM      30.22S
OSCEOLA        CLEAR     41  41 100 CALM      30.24S
$$

WIZ003>005-009-010-017-018-160500-
NORTH CENTRAL WISCONSIN

CITY           SKY/WX    TMP DP  RH WIND       PRES   REMARKS
WOODRUFF       CLEAR     37  35  91 CALM      30.15F
RHINELANDER    CLEAR     35  34  96 W3        30.17
EAGLE RIVER    CLEAR     34  34 100 CALM      30.15S
LAND O LAKES   CLEAR     33  33 100 CALM      30.15S
PHILLIPS       CLEAR     37  36  99 CALM      30.17S
TOMAHAWK       CLEAR     33  32  96 CALM      30.18S
MEDFORD        CLEAR     35  35  99 CALM      30.19S
MERRILL        PTCLDY    38  37  94 CALM      30.18S
$$

WIZ029-030-035-036-043>047-160500-
CENTRAL WISCONSIN

CITY           SKY/WX    TMP DP  RH WIND       PRES   REMARKS
WAUSAU         CLEAR     45  38  76 NW3       30.17S
MOSINEE        CLEAR     41  37  87 NW6       30.19S
MARSHFIELD     CLEAR     42  38  85 NW6       30.19R
STEVENS POINT  CLEAR     44  38  82 CALM      30.19R
WAUPACA        CLEAR     48  43  81 NW3       30.18R
WAUTOMA        CLEAR     45  42  89 NW3       30.19R
WISC RAPIDS    CLEAR     44  41  89 CALM      30.21R
CAMP DOUGLAS   CLEAR     41  41 100 W5        30.20R
$$

WIZ011>013-019>022-031-037>040-048>050-160500-
NORTHEAST WISCONSIN

CITY           SKY/WX    TMP DP  RH WIND       PRES   REMARKS
ANTIGO         CLEAR     40  38  91 NW3       30.17S
STURGEON BAY   PTCLDY    52  45  76 NW10      30.14R
GREEN BAY      CLEAR     47  45  93 NW8       30.16R
MANITOWOC      CLEAR     51  48  89 W8        30.15R
APPLETON       PTCLDY    46  46 100 W9        30.16R
CLINTONVILLE   CLEAR     48  41  76 NW5       30.16S
OSHKOSH        CLEAR     49  46  90 W7        30.15S
$$

WIZ032>034-041-042-053>061-160500-
SOUTHWEST WISCONSIN

CITY           SKY/WX    TMP DP  RH WIND       PRES   REMARKS
LA CROSSE      CLEAR     49  45  86 CALM      30.22S
SPARTA         CLEAR     39  38  99 CALM      30.23R
VIROQUA        FAIR      44  44 100 NW5       30.21F
BOSCOBEL       FOG       44  42  93 CALM      30.23R VSB 1/4
PRAIRIE DU CHI   N/A     44  42  93 CALM      30.23R
PLATTEVILLE    FAIR      45  44  96 CALM      30.22R
$$

WIZ056-057-062-063-064-067-068-160500-
SOUTH CENTRAL WISCONSIN

CITY           SKY/WX    TMP DP  RH WIND       PRES   REMARKS
BARABOO/DELLS  CLEAR     44  43  95 CALM      30.20R
LONE ROCK      PTCLDY    45  41  86 CALM      30.21S FOG
WATERTOWN      CLEAR     45  45 100 CALM      30.17S
MADISON        CLEAR     47  43  86 VRB3      30.19R
MIDDLETON      FAIR      44  44  99 CALM      30.20S
MONROE         CLEAR     50  45  81 NW8       30.20S
JANESVILLE     CLEAR     45  43  93 W3        30.19R
$$

WIZ051-052-058>065-066-070>072-160500-
SOUTHEAST WISCONSIN

CITY           SKY/WX    TMP DP  RH WIND       PRES   REMARKS
MILWAUKEE      CLEAR     50  47  89 W5        30.17R
WAUKESHA       CLEAR     43  43 100 W3        30.18S
MILWAUKEE/TIMM CLEAR     45  43  93 W3        30.18R
RACINE         CLEAR     49  46  90 W7        30.18S
BURLINGTON     CLEAR     41  41 100 SW3       30.18S FOG
KENOSHA        FOG       42  41  96 W5        30.18R VSB 1
FOND DU LAC    CLEAR     48  44  86 SW7       30.17R
SHEBOYGAN      CLEAR     45  44  97 W6        30.16R
WEST BEND      CLEAR     45  43  93 CALM      30.17R
JUNEAU         CLEAR     43  43  99 SW3       30.19R
$$

LSZ147-162-160500-
LAKE SUPERIOR

STATION/POSITION TIME  TEMP    WIND        PRES    WAVE
                       AIR SEA DIR/SP/G            HT/PER
                 (UTC) (F)     (DEG/KT/KT) (MB)    (FT/S)
W MID LAKE BUOY  0350   50 47  240/ 10/ 10 1019.6S   2/ 4
DEVILS ISLAND    0400   51     230/ 12/ 13 1020.7R
PORT WING        0300   48     200/  7/  9 1021.0S
SAXON HARBOR     0300   46     200/  7/ 10 1021.0
$$

LMZ867-665-643>646-160500-
LAKE MICHIGAN

STATION/POSITION TIME  TEMP    WIND        PRES    WAVE
                       AIR SEA DIR/SP/G            HT/PER
                 (UTC) (F)     (DEG/KT/KT) (MB)    (FT/S)
N MID LAKE BUOY  0350   56 58  360/ 10/ 12 1020.0R   1/ 5
NORTHPORT PIER   0300   55      10/  6/  7 1020.0R
KEWAUNEE LAKESHO 0300   50                   N/A
SHEBOYGAN LAKESH 0400   52 49  260/ 11/ 13 1021.4R
PORT WASHINGTON  0340   50     290/  6/  9 1021.7R
ATWATER BUOY     0400   54     280/ 10/ 14 1022.3R
MILWAUKEE LAKESH 0300   52     290/  6/  8   N/A
S MID LAKE BUOY  0350   58 64  340/ 10/ 14 1021.1R   2/ 4
KENOSHA   LAKESH 0400   51     280/  8/ 10 1021.7R
$$

TC  - TEMPERATURE IN CELSIUS
VSB - VISIBILITY IN STATUTE MILES
WCI - WIND CHILL INDEX
HX  - HEAT INDEX




USA.gov is the U.S. government's official web portal to all federal, state and local government web resources and services.